Hamilton, OH

8:02 PM EDT on July 21, 2017 (GMT -0400)
Butler County Regional

Weather History for KHAO - November, 2013

Change the Weather History Date:

Tuesday, November 26, 2013

  Actual Average (KLUK) Record (KLUK)
Temperature  
Mean Temperature 34 °F -  
Max Temperature 36 °F 53 °F 69 °F (1990)
Min Temperature 32 °F 35 °F 12 °F (1950)
Degree Days  
Heating Degree Days 31    
Moisture  
Dew Point 30 °F    
Average Humidity 84    
Maximum Humidity 96    
Minimum Humidity 70    
Precipitation  
Precipitation 0.01 in - - ()
Sea Level Pressure  
Sea Level Pressure 30.11 in    
Wind  
Wind Speed 2 mph (NW)    
Max Wind Speed 9 mph    
Max Gust Speed -    
Visibility 6 miles    
Events Snow    
Averages and records for this station are not official NWS values.
T = Trace of Precipitation, MM = Missing Value Source: NWS Daily Summary

Daily Weather History Graph

Daily Weather History Graph

Search for Another Location

Airport or City:

Trip Planner

Search our weather history database for the weather conditions in past years. The results will help you decide how hot, cold, wet, or windy it might be!

Date:

Astronomy

Nov. 26, 2013 Rise Set
Actual Time 7:34 AM EST 5:16 PM EST
Civil Twilight 7:04 AM EST 5:46 PM EST
Nautical Twilight 6:31 AM EST 6:19 PM EST
Astronomical Twilight 5:59 AM EST 6:51 PM EST
Moon 12:39 AM EST (11/26) 1:21 PM EST (11/26)
Length of Visible Light 10h 41m
Length of Day
9h 42m
Last Quarter, 41% of the Moon is Illuminated
Nov 26
Last Quarter
Dec 2
New
Dec 9
First Quarter
Dec 17
Full
Dec 25
Last Quarter

Hourly Weather History & Observations

Time (EST) Temp. Windchill Dew Point Humidity Pressure Visibility Wind Dir Wind Speed Gust Speed Precip Events Conditions
12:01 AM 35.6 °F 30.7 °F 26.6 °F 70% 30.20 in 10.0 mi SSW 5.8 mph - N/A   Overcast
12:53 AM 34.0 °F 29.8 °F 28.9 °F 82% 30.25 in 3.0 mi SW 4.6 mph - 0.00 in Snow Light Snow
1:01 AM 33.8 °F 30.8 °F 30.2 °F 87% 30.22 in 2.5 mi SW 3.5 mph - 0.00 in Snow Light Snow
1:10 AM 33.8 °F 30.8 °F 30.2 °F 87% 30.22 in 3.0 mi SW 3.5 mph - 0.00 in Snow Light Snow
1:27 AM 33.8 °F - 30.2 °F 87% 30.20 in 6.0 mi Calm Calm - 0.00 in Snow Light Snow
1:53 AM 33.1 °F - 30.0 °F 89% 30.22 in 5.0 mi Calm Calm - 0.00 in Snow Light Snow
2:18 AM 33.8 °F - 30.2 °F 87% 30.20 in 2.5 mi Calm Calm - 0.00 in Snow Light Snow
2:36 AM 33.8 °F - 30.2 °F 87% 30.21 in 1.8 mi Calm Calm - 0.01 in Snow Light Snow
2:43 AM 33.8 °F - 30.2 °F 87% 30.20 in 2.0 mi Calm Calm - 0.01 in Snow Light Snow
2:53 AM 33.1 °F - 30.9 °F 92% 30.22 in 2.0 mi Calm Calm - 0.01 in Snow Light Snow
3:02 AM 33.8 °F - 30.2 °F 87% 30.20 in 2.0 mi Calm Calm - 0.00 in Snow Light Snow
3:13 AM 33.8 °F - 30.2 °F 87% 30.21 in 2.0 mi Calm Calm - 0.00 in Snow Light Snow
3:26 AM 32.0 °F - 30.2 °F 93% 30.19 in 1.8 mi Calm Calm - 0.00 in Snow Light Snow
3:35 AM 32.0 °F - 30.2 °F 93% 30.20 in 2.0 mi Calm Calm - 0.00 in Snow Light Snow
3:42 AM 33.8 °F - 30.2 °F 87% 30.18 in 3.0 mi Calm Calm - 0.00 in Snow Light Snow
3:53 AM 33.1 °F - 30.9 °F 92% 30.21 in 4.0 mi Calm Calm - 0.00 in   Overcast
4:29 AM 33.8 °F - 30.2 °F 87% 30.16 in 6.0 mi Calm Calm - N/A   Overcast
4:53 AM 32.0 °F - 30.9 °F 96% 30.17 in 5.0 mi Calm Calm - N/A   Overcast
5:27 AM 32.0 °F - 30.2 °F 93% 30.16 in 5.0 mi Calm Calm - N/A   Overcast
5:46 AM 33.8 °F - 30.2 °F 87% 30.16 in 7.0 mi Calm Calm - N/A   Overcast
5:53 AM 33.1 °F - 30.9 °F 92% 30.18 in 7.0 mi Calm Calm - N/A   Overcast
6:53 AM 33.1 °F - 30.9 °F 92% 30.15 in 7.0 mi Calm Calm - N/A   Overcast
7:27 AM 33.8 °F - 30.2 °F 87% 30.11 in 7.0 mi Calm Calm - N/A   Overcast
7:53 AM 33.1 °F - 30.9 °F 92% 30.14 in 5.0 mi Calm Calm - N/A   Overcast
8:04 AM 33.8 °F - 32.0 °F 93% 30.13 in 3.0 mi Calm Calm - N/A   Overcast
8:22 AM 33.8 °F - 32.0 °F 93% 30.12 in 4.0 mi Calm Calm - N/A   Overcast
8:53 AM 34.0 °F - 32.0 °F 92% 30.13 in 4.0 mi Calm Calm - N/A   Overcast
9:53 AM 35.1 °F - 30.9 °F 85% 30.14 in 8.0 mi Calm Calm - N/A   Overcast
10:06 AM 35.6 °F - 30.2 °F 81% 30.13 in 8.0 mi Calm Calm - N/A   Overcast
10:53 AM 34.0 °F - 30.0 °F 85% 30.12 in 5.0 mi Calm Calm - N/A   Overcast
11:53 AM 35.1 °F - 30.0 °F 82% 30.11 in 10.0 mi Calm Calm - 0.00 in   Overcast
12:53 PM 36.0 °F 33.3 °F 30.0 °F 79% 30.03 in 10.0 mi North 3.5 mph - N/A   Overcast
1:19 PM 35.6 °F 31.7 °F 30.2 °F 81% 30.01 in 10.0 mi NNW 4.6 mph - N/A   Overcast
1:53 PM 36.0 °F 32.1 °F 30.0 °F 79% 30.02 in 10.0 mi North 4.6 mph - N/A   Overcast
2:17 PM 35.6 °F 32.8 °F 30.2 °F 81% 29.98 in 10.0 mi North 3.5 mph - N/A   Overcast
2:33 PM 35.6 °F 30.7 °F 28.4 °F 75% 29.98 in 10.0 mi North 5.8 mph - N/A   Overcast
2:51 PM 35.6 °F 31.7 °F 28.4 °F 75% 29.97 in 10.0 mi NNW 4.6 mph - N/A   Overcast
2:53 PM 36.0 °F 31.1 °F 28.9 °F 76% 29.99 in 10.0 mi North 5.8 mph - N/A   Overcast
3:53 PM 36.0 °F 31.1 °F 28.0 °F 73% 29.98 in 10.0 mi North 5.8 mph - N/A   Overcast
4:53 PM 35.1 °F 30.1 °F 26.1 °F 70% 29.98 in 10.0 mi NNW 5.8 mph - N/A   Overcast
5:53 PM 35.1 °F 29.3 °F 27.0 °F 72% 29.97 in 10.0 mi NNW 6.9 mph - 0.00 in   Overcast
6:53 PM 34.0 °F 28.0 °F 28.0 °F 79% 29.98 in 10.0 mi NNW 6.9 mph - N/A   Overcast
7:53 PM 33.1 °F 26.9 °F 27.0 °F 78% 29.99 in 10.0 mi NW 6.9 mph - N/A   Mostly Cloudy
8:53 PM 33.1 °F 26.1 °F 26.1 °F 75% 29.98 in 10.0 mi NW 8.1 mph - N/A   Overcast
9:53 PM 33.1 °F 27.7 °F 26.1 °F 75% 29.97 in 10.0 mi NW 5.8 mph - N/A   Overcast
10:53 PM 34.0 °F 27.2 °F 27.0 °F 75% 29.97 in 10.0 mi NW 8.1 mph - N/A   Overcast
11:53 PM 34.0 °F 26.6 °F 27.0 °F 75% 29.96 in 10.0 mi NW 9.2 mph - N/A   Overcast